HB9CJD-1 Weather Reports


time (UTC)temp
C
wind
direction
speed
KPH
gust
KPH
rain 1hr
cm
rain 24hr
cm
rain mn
cm
humidity
%
barometer
mb
20260507181855 16 0 0.0 0.0 0.00 0.00 0.00 55 1017.2
20260507180852 17 0 0.0 0.0 0.00 0.00 0.00 53 1017.2
20260507175849 16 0 0.0 0.0 0.00 0.00 0.00 58 1017.1
20260507174845 16 0 0.0 0.0 0.00 0.00 0.00 53 1017.1
20260507173842 16 0 0.0 0.0 0.00 0.00 0.00 55 1017.0
20260507172839 17 0 0.0 0.0 0.00 0.00 0.00 53 1017.0
20260507171836 18 0 0.0 0.0 0.00 0.00 0.00 51 1016.9
20260507170832 18 0 0.0 0.0 0.00 0.00 0.00 51 1016.8
20260507165829 19 0 0.0 0.0 0.00 0.00 0.00 48 1016.7
20260507164826 20 0 0.0 0.0 0.00 0.00 0.00 46 1016.7
20260507163823 17 0 0.0 0.0 0.00 0.00 0.00 48 1016.8
20260507162819 18 0 0.0 0.0 0.00 0.00 0.00 45 1016.9
20260507161816 17 0 0.0 0.0 0.00 0.00 0.00 47 1016.9
20260507160813 18 0 0.0 0.0 0.00 0.00 0.00 47 1016.9
20260507155810 16 0 0.0 0.0 0.00 0.00 0.00 53 1016.9
20260507154806 16 0 0.0 0.0 0.00 0.00 0.00 50 1016.9
20260507153803 17 0 0.0 0.0 0.00 0.00 0.00 47 1017.0
20260507152800 17 0 0.0 0.0 0.00 0.00 0.00 48 1016.9
20260507151756 16 0 0.0 0.0 0.00 0.00 0.00 49 1016.9
20260507150753 16 0 0.0 0.0 0.00 0.00 0.00 51 1017.0
20260507145750 17 0 0.0 0.0 0.00 0.00 0.00 53 1017.0
20260507144748 16 0 0.0 0.0 0.00 0.00 0.00 50 1017.0
20260507143744 15 0 0.0 0.0 0.00 0.00 0.00 54 1017.1
20260507142740 16 0 0.0 0.0 0.00 0.00 0.00 55 1017.0
20260507141737 15 0 0.0 0.0 0.00 0.00 0.00 53 1017.1
20260507140734 15 0 0.0 0.0 0.00 0.00 0.00 54 1017.1
20260507135731 16 0 0.0 0.0 0.00 0.00 0.00 53 1017.1
20260507134728 17 0 0.0 0.0 0.00 0.00 0.00 52 1017.1
20260507133724 16 0 0.0 0.0 0.00 0.00 0.00 54 1017.2
20260507132721 17 0 0.0 0.0 0.00 0.00 0.00 53 1017.3
20260507131718 16 0 0.0 0.0 0.00 0.00 0.00 54 1017.3
20260507130714 15 0 0.0 0.0 0.00 0.00 0.00 57 1017.4
20260507125711 15 0 0.0 0.0 0.00 0.00 0.00 55 1017.4
20260507124708 15 0 0.0 0.0 0.00 0.00 0.00 58 1017.5
20260507123705 15 0 0.0 0.0 0.00 0.00 0.00 60 1017.3
20260507122701 15 0 0.0 0.0 0.00 0.00 0.00 59 1017.4
20260507121658 15 0 0.0 0.0 0.00 0.00 0.00 64 1017.3
20260507120655 15 0 0.0 0.0 0.00 0.00 0.00 63 1017.3
20260507115652 16 0 0.0 0.0 0.00 0.00 0.00 62 1017.2
20260507114648 15 0 0.0 0.0 0.00 0.00 0.00 65 1017.3
20260507113645 14 0 0.0 0.0 0.00 0.00 0.00 63 1017.5
20260507112642 15 0 0.0 0.0 0.00 0.00 0.00 62 1017.5
20260507111638 13 0 0.0 0.0 0.00 0.00 0.00 72 1017.6
20260507110635 13 0 0.0 0.0 0.00 0.00 0.00 74 1017.6
20260507105632 13 0 0.0 0.0 0.00 0.00 0.00 72 1017.7
20260507104629 13 0 0.0 0.0 0.00 0.00 0.00 70 1017.7
20260507103626 13 0 0.0 0.0 0.00 0.00 0.00 72 1017.7
20260507102622 13 0 0.0 0.0 0.00 0.00 0.00 76 1017.8
20260507101619 13 0 0.0 0.0 0.00 0.00 0.00 79 1017.8
20260507100616 12 0 0.0 0.0 0.00 0.00 0.00 77 1017.9
20260507095613 12 0 0.0 0.0 0.00 0.00 0.00 80 1017.9
20260507094609 11 0 0.0 0.0 0.00 0.00 0.00 82 1017.9
20260507093606 11 0 0.0 0.0 0.00 0.00 0.00 88 1017.9
20260507092603 11 0 0.0 0.0 0.00 0.00 0.00 85 1017.9
20260507091600 10 0 0.0 0.0 0.00 0.00 0.00 92 1017.8
20260507090556 10 0 0.0 0.0 0.00 0.00 0.00 90 1017.8
20260507085553 10 0 0.0 0.0 0.00 0.00 0.00 91 1017.6
20260507084550 10 0 0.0 0.0 0.00 0.00 0.00 92 1017.6
20260507083547 10 0 0.0 0.0 0.00 0.00 0.00 94 1017.5
20260507082544 10 0 0.0 0.0 0.00 0.00 0.00 97 1017.6
20260507081540 10 0 0.0 0.0 0.00 0.00 0.00 93 1017.6
20260507080537 10 0 0.0 0.0 0.00 0.00 0.00 95 1017.5
20260507075534 10 0 0.0 0.0 0.00 0.00 0.00 94 1017.4
20260507074530 10 0 0.0 0.0 0.00 0.00 0.00 95 1017.5
20260507073528 9 0 0.0 0.0 0.00 0.00 0.00 94 1017.4
20260507072524 9 0 0.0 0.0 0.00 0.00 0.00 95 1017.4
20260507071521 9 0 0.0 0.0 0.00 0.00 0.00 94 1017.3
20260507070517 9 0 0.0 0.0 0.00 0.00 0.00 93 1017.3
20260507065514 9 0 0.0 0.0 0.00 0.00 0.00 95 1017.2
20260507064511 9 0 0.0 0.0 0.00 0.00 0.00 94 1017.0
20260507063508 8 0 0.0 0.0 0.00 0.00 0.00 93 1017.1
20260507062504 9 0 0.0 0.0 0.00 0.00 0.00 96 1017.0
20260507061502 8 0 0.0 0.0 0.00 0.00 0.00 93 1016.9
20260507060458 8 0 0.0 0.0 0.00 0.00 0.00 91 1016.8
20260507055455 8 0 0.0 0.0 0.00 0.00 0.00 93 1016.7
20260507054451 8 0 0.0 0.0 0.00 0.00 0.00 93 1016.6
20260507053448 8 0 0.0 0.0 0.00 0.00 0.00 92 1016.6
20260507052445 8 0 0.0 0.0 0.00 0.00 0.00 92 1016.5
20260507051442 8 0 0.0 0.0 0.00 0.00 0.00 94 1016.4
20260507050438 8 0 0.0 0.0 0.00 0.00 0.00 95 1016.3
20260507045435 8 0 0.0 0.0 0.00 0.00 0.00 93 1016.2
20260507044432 8 0 0.0 0.0 0.00 0.00 0.00 94 1016.0
20260507043429 8 0 0.0 0.0 0.00 0.00 0.00 95 1016.0
20260507042426 8 0 0.0 0.0 0.00 0.00 0.00 92 1016.0
20260507041422 8 0 0.0 0.0 0.00 0.00 0.00 95 1015.9
20260507040419 8 0 0.0 0.0 0.00 0.00 0.00 94 1015.9
20260507035416 8 0 0.0 0.0 0.00 0.00 0.00 92 1015.8
20260507034412 8 0 0.0 0.0 0.00 0.00 0.00 92 1015.8
20260507033409 8 0 0.0 0.0 0.00 0.00 0.00 92 1015.7
20260507032406 8 0 0.0 0.0 0.00 0.00 0.00 92 1015.6
20260507031403 8 0 0.0 0.0 0.00 0.00 0.00 91 1015.6
20260507030359 8 0 0.0 0.0 0.00 0.00 0.00 90 1015.5
20260507025356 8 0 0.0 0.0 0.00 0.00 0.00 89 1015.5
20260507024353 8 0 0.0 0.0 0.00 0.00 0.00 88 1015.5
20260507023350 8 0 0.0 0.0 0.00 0.00 0.00 88 1015.4
20260507022346 8 0 0.0 0.0 0.00 0.00 0.00 89 1015.5
20260507021343 8 0 0.0 0.0 0.00 0.00 0.00 87 1015.4
20260507020340 8 0 0.0 0.0 0.00 0.00 0.00 88 1015.2
20260507015337 8 0 0.0 0.0 0.00 0.00 0.00 87 1015.2
20260507014333 8 0 0.0 0.0 0.00 0.00 0.00 86 1015.1
20260507013330 8 0 0.0 0.0 0.00 0.00 0.00 86 1015.1
20260507012328 8 0 0.0 0.0 0.00 0.00 0.00 86 1015.0
20260507011324 8 0 0.0 0.0 0.00 0.00 0.00 86 1015.0
20260507010321 8 0 0.0 0.0 0.00 0.00 0.00 86 1015.0
20260507005317 8 0 0.0 0.0 0.00 0.00 0.00 85 1014.9
20260507004314 8 0 0.0 0.0 0.00 0.00 0.00 86 1014.9
20260507003311 8 0 0.0 0.0 0.00 0.00 0.00 86 1014.9
20260507002308 8 0 0.0 0.0 0.00 0.00 0.00 87 1014.9
20260507001304 8 0 0.0 0.0 0.00 0.00 0.00 88 1014.9
20260507000301 8 0 0.0 0.0 0.00 0.00 0.00 87 1015.0
20260506235258 8 0 0.0 0.0 0.00 0.00 0.00 85 1014.8
20260506234254 8 0 0.0 0.0 0.00 0.00 0.00 88 1014.7
20260506233251 8 0 0.0 0.0 0.00 0.00 0.00 88 1014.7
20260506232248 8 0 0.0 0.0 0.00 0.00 0.00 88 1014.6
20260506231245 8 0 0.0 0.0 0.00 0.00 0.00 88 1014.6
20260506230241 8 0 0.0 0.0 0.00 0.00 0.00 91 1014.5
20260506225238 8 0 0.0 0.0 0.00 0.00 0.00 90 1014.6
20260506224235 8 0 0.0 0.0 0.00 0.00 0.00 87 1014.5
20260506223232 8 0 0.0 0.0 0.00 0.00 0.00 87 1014.5
20260506222228 8 0 0.0 0.0 0.00 0.00 0.00 86 1014.5
20260506221225 8 0 0.0 0.0 0.00 0.00 0.00 86 1014.4
20260506220222 8 0 0.0 0.0 0.00 0.00 0.00 85 1014.4
20260506215219 9 0 0.0 0.0 0.00 0.00 0.00 83 1014.4
20260506214215 9 0 0.0 0.0 0.00 0.00 0.00 84 1014.4
20260506213212 9 0 0.0 0.0 0.00 0.00 0.00 84 1014.4
20260506212209 8 0 0.0 0.0 0.00 0.00 0.00 84 1014.5
20260506211206 9 0 0.0 0.0 0.00 0.00 0.00 82 1014.5
20260506210202 9 0 0.0 0.0 0.00 0.00 0.00 82 1014.4
20260506205159 9 0 0.0 0.0 0.00 0.00 0.00 83 1014.3
20260506204156 9 0 0.0 0.0 0.00 0.00 0.00 82 1014.3
20260506203153 9 0 0.0 0.0 0.00 0.00 0.00 83 1014.3
20260506202149 9 0 0.0 0.0 0.00 0.00 0.00 82 1014.3
20260506201146 9 0 0.0 0.0 0.00 0.00 0.00 82 1014.3
20260506200143 9 0 0.0 0.0 0.00 0.00 0.00 80 1014.3
20260506195140 10 0 0.0 0.0 0.00 0.00 0.00 79 1014.2
20260506194137 10 0 0.0 0.0 0.00 0.00 0.00 79 1014.1
20260506193133 10 0 0.0 0.0 0.00 0.00 0.00 79 1013.9
20260506192130 10 0 0.0 0.0 0.00 0.00 0.00 79 1013.8
20260506191127 10 0 0.0 0.0 0.00 0.00 0.00 78 1013.6
20260506190123 10 0 0.0 0.0 0.00 0.00 0.00 77 1013.4
20260506185120 10 0 0.0 0.0 0.00 0.00 0.00 78 1013.4
20260506184117 10 0 0.0 0.0 0.00 0.00 0.00 77 1013.5
20260506183114 10 0 0.0 0.0 0.00 0.00 0.00 78 1013.2